Content
SEND FEEDBACK

Daily
Averages
Monthly
Summary
Philippines

OLONGAPO, PHILIPPINES


Home > Asia > Philippines
Elevation: 55 feet     Latitude: 14 48N     Longitude: 120 16E

WEATHER
 
SELECT A DAY
Number of Records: 132,952;   Date Range: 7/31/96 - 4/15/14
 
SHARE

PRINT THIS DATA

[ ← Previous Day ]
WEATHER ALMANAC - OCTOBER 5, 2013
[ Next Day → ]
[ °C ]   °F
Weather ElementAverageHighLow
Temperature82.7 °F89.6 °F (1:00 pm)75.2 °F (5:00 am)
Dewpoint71.9 °F75.2 °F (2:00 am)68 °F (2:00 pm)
Humidity70.1 %94 % (2:00 am)41 % (2:00 pm)
Barometer29.70 in29.75 in (11:00 pm)29.65 in (2:00 pm)
Wind Speed9.4 mph105.9 mph (9:00 am)
Weather ElementAverage
Visibility6.6 mi
Wind DirectionSSE (163.3 °)

Weather ElementTotal
Precipitation---
Cooling Degree Days17.4 (Base 65)
Growing Degree Days32.4 (Base 50)
Averaged from 24 records on October 5, 2013
WEATHER CONDITIONS BREAKOUT
WIND DIRECTION BREAKOUT
WEATHER BY HOUR - OCTOBER 5, 2013
[ °C ]   °F
Local TimeTemperatureDewpointHumidityBarometerVisibilityWind DirectionWind SpeedGust SpeedPrecipitationEventsConditions
2:00 AM77.0 °F75.2 °F94 %29.71 in5.6 miNE (50°)3.5 mphPartly Cloudy
5:00 AM76.0 °F73.0 °F88 %29.69 in11.0 miENE (70°)6.7 mphHaze
5:00 AM75.2 °F73.4 °F94 %29.68 in5.6 miENE (70°)3.5 mphPartly Cloudy
6:00 AM75.2 °F71.6 °F89 %29.71 in6.2 miVariable2.3 mphPartly Cloudy
7:00 AM77.0 °F73.4 °F89 %29.71 in5.6 miVariable2.3 mphPartly Cloudy
8:00 AM80.6 °F73.4 °F79 %29.74 in5.6 miVariable2.3 mphPartly Cloudy
9:00 AM82.4 °F75.2 °F79 %29.74 in5.6 miVariable105.9 mphPartly Cloudy
10:00 AM84.2 °F73.4 °F70 %29.74 in5.6 miVariable2.3 mphScattered Clouds
11:00 AM85.0 °F74.0 °F61 %29.73 in6.0 miNE (50°)2.2 mphHaze
11:00 AM84.2 °F73.4 °F70 %29.71 in5.6 miVariable1.2 mphScattered Clouds
12:00 PM86.0 °F75.2 °F70 %29.71 in5.6 miWNW (300°)4.6 mphScattered Clouds
1:00 PM89.6 °F71.6 °F55 %29.68 in5.6 miNW (320°)4.6 mphPartly Cloudy
2:00 PM89.6 °F68.0 °F49 %29.65 in6.2 miNW (320°)8.1 mphPartly Cloudy
2:00 PM89.0 °F68.0 °F41 %29.66 in11.0 miNW (320°)8.9 mphHaze
3:00 PM89.6 °F68.0 °F49 %29.65 in6.2 miNNW (330°)9.2 mphMostly Cloudy
4:00 PM89.6 °F69.8 °F52 %29.65 in6.2 miNW (320°)10.4 mphMostly Cloudy
5:00 PM87.8 °F69.8 °F55 %29.65 in6.2 miNW (320°)9.2 mphMostly Cloudy
6:00 PM84.2 °F71.6 °F66 %29.68 in6.2 miNorth (350°)9.2 mphMostly Cloudy
7:00 PM82.4 °F71.6 °F70 %29.68 in6.2 miNorth (360°)6.9 mphScattered Clouds
8:00 PM81.0 °F71.0 °F66 %29.71 in9.0 miNorth (350°)6.7 mphHaze
8:00 PM80.6 °F71.6 °F74 %29.71 in6.2 miNorth (350°)6.9 mphPartly Cloudy
9:00 PM80.6 °F71.6 °F74 %29.71 in6.2 miVariable3.5 mphPartly Cloudy
11:00 PM79.0 °F71.0 °F71 %29.75 in9.0 miNE (40°)2.2 mphHaze
11:00 PM78.8 °F71.6 °F78 %29.74 in6.2 miVariable2.3 mphPartly Cloudy
Hourly data recorded from RPLB, located 0.47 miles away from Olongapo, Philippines







STORIES FROM OUR PARTNERS